USA 176 (DSP 22)

Last updated on Tue Jul 01 2025 00:02:44 GMT+0000 (Coordinated Universal Time)

1 28158U 04004A 25181.58002705 .00000019 00000+0 00000+0 0 9994 2 28158 11.5785 28.5651 0001592 217.2507 95.4705 1.01093094 29403
UTC large
Height (km)
Speed (km/s)
/
Latitude / Longitude
Inclination (degrees)
Orbital Period (minutes)
Azimuth
Elevation
Range (km)
Doppler Factor

Next 0 passes for location: London (51.5072 / 0.1276)

Sorry there are no passes over London.